Location: Campestrin
(46.4667°N, 11.7167°E)
Time: 15:21:56
(UTC+00:00)

Cosmos 482 Debris - Pass Details

Date: 18 April 2021
Orbit: 199 x 2135 km, 52.0° (Epoch: 07 May)

Event Time Altitude Azimuth Distance (km) Brightness Sun altitude
Rises 18:36:24 0° 247° (WSW) 2,581 8.5 -5.9°
Reaches altitude 10° 18:39:01 10° 250° (WSW) 1,427 7.2 -6.3°
Maximum altitude 18:41:59 65° 333° (NNW) 330 3.5 -6.8°
Drops below altitude 10° 18:44:06 10° 57° (ENE) 1,011 5.4 -7.1°
Enters shadow 18:45:11 - 60° (ENE) 1,497 6.2 -7.3°
